Skip Page Navigation
NASA JPL Caltech
NASA Logo - Jet Propulsion Laboratory + View the NASA Portal
+ Near-Earth Object (NEO) Program
Search JPL
JPL Home Earth Solar System Stars & Galaxies Technology
JPL Solar System Dynamics
BODIES ORBITS EPHEMERIDES TOOLS PHYSICAL DATA DISCOVERY FAQ SITE MAP
JPL Small-Body Database Browser
Search: [ help ]  
12343 Martinbeech (1993 DT1)
Classification: Main-belt Asteroid          SPK-ID: 2012343
Ephemeris | Orbit Diagram | Orbital Elements | Physical Parameters | Discovery Circumstances ]

[ hide orbit diagram ]
Orbit Diagram
Note: Make sure you have Java enabled on your browser to see the applet. This applet is provided as a 3D orbit visualization tool. The applet was implemented using 2-body methods, and hence should not be used for determining accurate long-term trajectories (over several years or decades) or planetary encounter circumstances. For accurate long-term ephemerides, please instead use our Horizons system.
Orbit Viewer

Additional Notes: the orbits shown in the applet are color coded. The planets are white lines, and the asteroid/comet is a blue line. The bright white line indicates the portion of the orbit that is above the ecliptic plane, and the darker portion is below the ecliptic plane. Likewise for the asteroid/comet orbit, the light blue indicates the portion above the ecliptic plane, and the dark blue the portion below the ecliptic plane.

Orbit Viewer applet originally written and kindly provided by Osamu Ajiki (AstroArts), and further modified by Ron Baalke (JPL).


Orbital Elements at Epoch 2456400.5 (2013-Apr-18.0) TDB
Reference: MPO250334 (heliocentric ecliptic J2000)
 Element Value Uncertainty (1-sigma)   Units 
e 0.2451585 n/a  
a 2.5959688 n/a AU
q 1.9595450 n/a AU
i 3.19270 n/a deg
node 199.74538 n/a deg
peri 56.67822 n/a deg
M 212.15922 n/a deg
tp 2457027.8925687
(2015-Jan-05.39256870)
n/a JED
period 1527.7335843
4.18
n/a
n/a
d
yr
n 0.23564318 n/a deg/d
Q 3.2323926 n/a AU
  Orbit Determination Parameters
   # obs. used (total)      522  
   first obs. used      1981-??-??  
   last obs. used      2013-01-07  
   # oppositions      15  
   planetary ephem.      DE403  
   condition code      0  
   fit RMS      0.54  
   data source      MPC:mpn  
   producer      MPCLINUX  

Additional Information
 T_jup = 3.372 

Ephemeris | Orbit Diagram | Orbital Elements | Physical Parameters | Discovery Circumstances ]

Physical Parameter Table
Parameter Symbol Value Units Sigma Reference Notes
absolute magnitude H 14.8 mag n/a PDS3 (MPC 36697)  

12343 Martinbeech           Discovered 1993 Feb. 26 by Spacewatch at Kitt Peak.
Martin Beech (b. 1959) is an assistant professor of astronomy at the University of Regina, Saskatchewan. He does research on meteor light curves, the dynamics of meteoroid streams, cometary aging and meteoroid-stream formation.
NOTE: some special characters may not display properly (any characters within {} are an attempt to place the proper accent above a character)
Reference: 20020128/MPCPages.arcLast Updated: 2003-10-02

Alternate Designations
 1993 DT1 = 1981 JA6 
Ephemeris | Orbit Diagram | Orbital Elements | Physical Parameters | Discovery Circumstances ]
ABOUT SSD CREDITS/AWARDS PRIVACY/COPYRIGHT GLOSSARY LINKS
FirstGov 2013-May-18 09:01 UT
(server date/time)  
NASA Home Page
Site Manager:   Donald K. Yeomans
Webmaster  Alan B. Chamberlin